SL-16 DEB, 29098

Orbit data source: Space-Track

SL-16 DEB, 29098 is space debris in LEO originally from a launch on Fri, 26 Mar 1993 UTC launched from the Tyuratam Missile And Space Complex (TTMTR). Debris objects in space refer to the collection of defunct objects orbiting the Earth. Examples of debris include non-operational satellites, rocket bodies, and fragments generated from explosions, collisions, or faulty payload assembly.

Loading next visibility...
Identifier
29098, 1993-016AM
Orbit
LEO
Country
Flag of CISCIS
Related business
Manufacturer
Unknown
Mission
Spacecraft
Bus & Motor
Unknown
Mass
Unknown
Launch date (UTC)
1993-03-26 (33 years ago)
Launch vehicle
Unknown
Launch site
Tyuratam Missile And Space Complex (TTMTR)
Object type
Payload
Rocket body
Debris
Shape & HBR
Unknown shape, 0.1 m
Radar Cross Section
Small (<0.1 m²)

Expand to show TLE details & history
Last TLE update: 2 weeks ago

TLE from 2 weeks ago
0 SL-16 DEB
1 29098U 93016AM  26158.75500062  .00000476  00000-0  24918-3 0  9998
2 29098  70.9217 186.0901 0082875 214.1947 265.4373 14.17696375669458
Epoch: 2026-06-07T18:07Z
TLE epoch observation values (Epoch: 2026-06-07T18:07:12.053Z)
Latitude
56.11564°
Longitude
167.32277°
Altitude
847.21 km
Speed
7.432 km/s
True Right ascension
22h 21m 05s
True Declination
55° 57' 30"
Sunlit
Object was in daylight at epoch
Visualization orbit readout
Latitude
Unknown
Longitude
Unknown
Altitude
Unknown
Speed
Unknown
Apparent Right ascension
Unknown
Apparent Declination
Unknown
Sunlit
N/A
Visualization observer readout
Local Sidereal Time
00:50:29
Azimuth
Unknown
Elevation
Unknown
Doppler factor
Unknown
Orbital elements
Apogee altitude
890.83 km
Perigee altitude
771.337 km
Semi-major axis
7,209.221 km
Eccentricity
0.00829
Inclination
70.9217°
RAAN
186.0901°
Arg. of periapsis
214.1947°
True anomaly
264.49145°
Mean anomaly
265.4373°
Eccentric anomaly
264.96429°
Mean motion
3.54577 °/min
Orbital period
101.53 mins
BSTAR
0.00024918
Loading maneuver chart data...
Computing Atmospheric mass density...
Loading historical data...
Loading historical data...
Loading historical data...
Loading historical data...
Loading historical data...
Loading historical data...
Loading historical data...

Documentation

Showing up to 5 results
|